Year,Month,Day,Hour,Minute,Value (Times are PST for windspeed in km/hr)
2014,02,16,00,00,12.10
2014,02,16,00,01,13.60
2014,02,16,00,02,16.70
2014,02,16,00,03,17.20
2014,02,16,00,04,17.10
2014,02,16,00,05,15.60
2014,02,16,00,06,11.60
2014,02,16,00,07,11.70
2014,02,16,00,08,13.80
2014,02,16,00,09,15.50
2014,02,16,00,10,14.00
2014,02,16,00,11,17.10
2014,02,16,00,12,11.10
2014,02,16,00,13,15.40
2014,02,16,00,14,14.60
2014,02,16,00,15,13.90
2014,02,16,00,16,13.60
2014,02,16,00,17,10.30
2014,02,16,00,18,12.00
2014,02,16,00,19,11.20
2014,02,16,00,20,12.10
2014,02,16,00,21,13.90
2014,02,16,00,22,11.70
2014,02,16,00,23,10.20
2014,02,16,00,24,10.40
2014,02,16,00,25,7.50
2014,02,16,00,26,11.30
2014,02,16,00,27,8.40
2014,02,16,00,28,11.10
2014,02,16,00,29,10.90
2014,02,16,00,30,11.30
2014,02,16,00,31,8.80
2014,02,16,00,32,8.30
2014,02,16,00,33,6.10
2014,02,16,00,34,3.20
2014,02,16,00,35,10.70
2014,02,16,00,36,7.70
2014,02,16,00,37,7.50
2014,02,16,00,38,13.60
2014,02,16,00,39,8.80
2014,02,16,00,40,5.00
2014,02,16,00,41,12.30
2014,02,16,00,42,15.40
2014,02,16,00,43,8.30
2014,02,16,00,44,8.30
2014,02,16,00,45,6.10
2014,02,16,00,46,7.10
2014,02,16,00,47,11.30
2014,02,16,00,48,5.10
2014,02,16,00,49,3.60
2014,02,16,00,50,5.20
2014,02,16,00,51,4.70
2014,02,16,00,52,7.70
2014,02,16,00,53,3.60
2014,02,16,00,54,3.20
2014,02,16,00,55,3.20
2014,02,16,00,56,8.90
2014,02,16,00,57,8.00
2014,02,16,00,58,5.90
2014,02,16,00,59,5.50
2014,02,16,01,00,3.90
2014,02,16,01,01,4.10
2014,02,16,01,02,3.40
2014,02,16,01,03,1.90
2014,02,16,01,04,6.40
2014,02,16,01,05,10.30
2014,02,16,01,06,9.10
2014,02,16,01,07,10.50
2014,02,16,01,08,6.80
2014,02,16,01,09,3.10
2014,02,16,01,10,8.60
2014,02,16,01,11,6.70
2014,02,16,01,12,10.20
2014,02,16,01,13,3.00
2014,02,16,01,14,7.90
2014,02,16,01,15,4.70
2014,02,16,01,16,4.90
2014,02,16,01,17,9.40
2014,02,16,01,18,11.10
2014,02,16,01,19,8.80
2014,02,16,01,20,3.90
2014,02,16,01,21,4.10
2014,02,16,01,22,5.10
2014,02,16,01,23,6.20
2014,02,16,01,24,11.00
2014,02,16,01,25,8.80
2014,02,16,01,26,6.70
2014,02,16,01,27,11.00
2014,02,16,01,28,2.90
2014,02,16,01,29,9.10
2014,02,16,01,30,4.30
2014,02,16,01,31,3.60
2014,02,16,01,32,8.50
2014,02,16,01,33,7.40
2014,02,16,01,34,3.00
2014,02,16,01,35,9.70
2014,02,16,01,36,4.80
2014,02,16,01,37,3.10
2014,02,16,01,38,12.90
2014,02,16,01,39,5.60
2014,02,16,01,40,5.00
2014,02,16,01,41,4.30
2014,02,16,01,42,6.50
2014,02,16,01,43,6.20
2014,02,16,01,44,6.30
2014,02,16,01,45,2.50
2014,02,16,01,46,4.00
2014,02,16,01,47,8.40
2014,02,16,01,48,3.00
2014,02,16,01,49,2.00
2014,02,16,01,50,3.10
2014,02,16,01,51,5.70
2014,02,16,01,52,8.50
2014,02,16,01,53,6.40
2014,02,16,01,54,8.70
2014,02,16,01,55,8.20
2014,02,16,01,56,5.30
2014,02,16,01,57,8.00
2014,02,16,01,58,6.10
2014,02,16,01,59,7.50
2014,02,16,02,00,4.10
2014,02,16,02,01,5.10
2014,02,16,02,02,5.50
2014,02,16,02,03,4.40
2014,02,16,02,04,8.50
2014,02,16,02,05,14.10
2014,02,16,02,06,16.80
2014,02,16,02,07,16.10
2014,02,16,02,08,11.20
2014,02,16,02,09,13.80
2014,02,16,02,10,14.50
2014,02,16,02,11,10.20
2014,02,16,02,12,11.00
2014,02,16,02,13,13.60
2014,02,16,02,14,14.90
2014,02,16,02,15,15.50
2014,02,16,02,16,12.90
2014,02,16,02,17,11.80
2014,02,16,02,18,9.00
2014,02,16,02,19,14.10
2014,02,16,02,20,10.80
2014,02,16,02,21,8.70
2014,02,16,02,22,11.40
2014,02,16,02,23,9.90
2014,02,16,02,24,12.30
2014,02,16,02,25,9.70
2014,02,16,02,26,9.80
2014,02,16,02,27,11.00
2014,02,16,02,28,13.40
2014,02,16,02,29,12.50
2014,02,16,02,30,9.40
2014,02,16,02,31,10.40
2014,02,16,02,32,12.40
2014,02,16,02,33,10.80
2014,02,16,02,34,8.70
2014,02,16,02,35,7.80
2014,02,16,02,36,9.90
2014,02,16,02,37,14.60
2014,02,16,02,38,11.60
2014,02,16,02,39,6.80
2014,02,16,02,40,10.70
2014,02,16,02,41,8.80
2014,02,16,02,42,12.00
2014,02,16,02,43,8.50
2014,02,16,02,44,12.30
2014,02,16,02,45,12.10
2014,02,16,02,46,10.60
2014,02,16,02,47,12.90
2014,02,16,02,48,11.00
2014,02,16,02,49,12.90
2014,02,16,02,50,10.00
2014,02,16,02,51,9.50
2014,02,16,02,52,13.60
2014,02,16,02,53,12.10
2014,02,16,02,54,3.90
2014,02,16,02,55,10.60
2014,02,16,02,56,8.80
2014,02,16,02,57,10.10
2014,02,16,02,58,8.00
2014,02,16,02,59,7.50
2014,02,16,03,00,10.70
2014,02,16,03,01,2.10
2014,02,16,03,02,12.10
2014,02,16,03,03,9.40
2014,02,16,03,04,11.50
2014,02,16,03,05,14.80
2014,02,16,03,06,8.80
2014,02,16,03,07,6.10
2014,02,16,03,08,12.10
2014,02,16,03,09,9.70
2014,02,16,03,10,6.60
2014,02,16,03,11,9.70
2014,02,16,03,12,10.90
2014,02,16,03,13,11.70
2014,02,16,03,14,9.00
2014,02,16,03,15,9.20
2014,02,16,03,16,7.60
2014,02,16,03,17,16.80
2014,02,16,03,18,19.50
2014,02,16,03,19,20.00
2014,02,16,03,20,18.80
2014,02,16,03,21,13.30
2014,02,16,03,22,12.90
2014,02,16,03,23,17.20
2014,02,16,03,24,13.80
2014,02,16,03,25,11.80
2014,02,16,03,26,13.00
2014,02,16,03,27,17.90
2014,02,16,03,28,13.90
2014,02,16,03,29,9.70
2014,02,16,03,30,10.70
2014,02,16,03,31,8.30
2014,02,16,03,32,13.20
2014,02,16,03,33,10.20
2014,02,16,03,34,13.00
2014,02,16,03,35,14.80
2014,02,16,03,36,16.20
2014,02,16,03,37,15.60
2014,02,16,03,38,10.50
2014,02,16,03,39,9.50
2014,02,16,03,40,13.90
2014,02,16,03,41,13.90
2014,02,16,03,42,13.20
2014,02,16,03,43,14.20
2014,02,16,03,44,15.90
2014,02,16,03,45,10.70
2014,02,16,03,46,9.30
2014,02,16,03,47,6.20
2014,02,16,03,48,10.80
2014,02,16,03,49,11.80
2014,02,16,03,50,13.50
2014,02,16,03,51,8.90
2014,02,16,03,52,7.60
2014,02,16,03,53,8.40
2014,02,16,03,54,8.30
2014,02,16,03,55,11.00
2014,02,16,03,56,14.00
2014,02,16,03,57,10.60
2014,02,16,03,58,10.10
2014,02,16,03,59,14.40
2014,02,16,04,00,11.20
2014,02,16,04,01,7.80
2014,02,16,04,02,13.90
2014,02,16,04,03,9.70
2014,02,16,04,04,5.00
2014,02,16,04,05,9.70
2014,02,16,04,06,7.80
2014,02,16,04,07,10.70
2014,02,16,04,08,2.20
2014,02,16,04,09,3.00
2014,02,16,04,10,4.80
2014,02,16,04,11,8.60
2014,02,16,04,12,14.50
2014,02,16,04,13,11.00
2014,02,16,04,14,8.60
2014,02,16,04,15,10.00
2014,02,16,04,16,8.00
2014,02,16,04,17,8.80
2014,02,16,04,18,7.70
2014,02,16,04,19,7.40
2014,02,16,04,20,11.00
2014,02,16,04,21,9.00
2014,02,16,04,22,3.40
2014,02,16,04,23,4.20
2014,02,16,04,24,8.40
2014,02,16,04,25,5.40
2014,02,16,04,26,9.60
2014,02,16,04,27,4.50
2014,02,16,04,28,0.60
2014,02,16,04,29,3.60
2014,02,16,04,30,3.40
2014,02,16,04,31,6.20
2014,02,16,04,32,4.00
2014,02,16,04,33,2.60
2014,02,16,04,34,4.80
2014,02,16,04,35,3.90
2014,02,16,04,36,4.40
2014,02,16,04,37,5.30
2014,02,16,04,38,4.50
2014,02,16,04,39,5.30
2014,02,16,04,40,4.90
2014,02,16,04,41,4.20
2014,02,16,04,42,3.80
2014,02,16,04,43,3.00
2014,02,16,04,44,3.90
2014,02,16,04,45,3.00
2014,02,16,04,46,1.60
2014,02,16,04,47,1.00
2014,02,16,04,48,2.70
2014,02,16,04,49,1.50
2014,02,16,04,50,0.30
2014,02,16,04,51,0.20
2014,02,16,04,52,3.80
2014,02,16,04,53,0.90
2014,02,16,04,54,1.10
2014,02,16,04,55,1.10
2014,02,16,04,56,0.00
2014,02,16,04,57,0.00
2014,02,16,04,58,0.00
2014,02,16,04,59,0.00
2014,02,16,05,00,0.20
2014,02,16,05,01,0.00
2014,02,16,05,02,0.30
2014,02,16,05,03,0.10
2014,02,16,05,04,0.00
2014,02,16,05,05,0.00
2014,02,16,05,06,0.00
2014,02,16,05,07,0.10
2014,02,16,05,08,0.00
2014,02,16,05,09,0.00
2014,02,16,05,10,0.00
2014,02,16,05,11,0.00
2014,02,16,05,12,0.00
2014,02,16,05,13,0.00
2014,02,16,05,14,0.00
2014,02,16,05,15,0.40
2014,02,16,05,16,0.00
2014,02,16,05,17,0.00
2014,02,16,05,18,0.00
2014,02,16,05,19,0.30
2014,02,16,05,20,1.00
2014,02,16,05,21,0.20
2014,02,16,05,22,0.00
2014,02,16,05,23,0.00
2014,02,16,05,24,0.00
2014,02,16,05,25,0.00
2014,02,16,05,26,0.00
2014,02,16,05,27,0.00
2014,02,16,05,28,0.00
2014,02,16,05,29,0.00
2014,02,16,05,30,0.00
2014,02,16,05,31,0.00
2014,02,16,05,32,0.10
2014,02,16,05,33,0.40
2014,02,16,05,34,1.20
2014,02,16,05,35,1.20
2014,02,16,05,36,0.20
2014,02,16,05,37,0.00
2014,02,16,05,38,0.00
2014,02,16,05,39,0.10
2014,02,16,05,40,0.90
2014,02,16,05,41,0.70
2014,02,16,05,42,0.70
2014,02,16,05,43,0.00
2014,02,16,05,44,0.10
2014,02,16,05,45,0.40
2014,02,16,05,46,0.40
2014,02,16,05,47,0.00
2014,02,16,05,48,1.40
2014,02,16,05,49,1.80
2014,02,16,05,50,1.00
2014,02,16,05,51,1.30
2014,02,16,05,52,2.40
2014,02,16,05,53,3.40
2014,02,16,05,54,3.10
2014,02,16,05,55,1.00
2014,02,16,05,56,1.00
2014,02,16,05,57,0.10
2014,02,16,05,58,1.90
2014,02,16,05,59,1.70
2014,02,16,06,00,2.00
2014,02,16,06,01,2.30
2014,02,16,06,02,1.90
2014,02,16,06,03,1.20
2014,02,16,06,04,2.10
2014,02,16,06,05,1.20
2014,02,16,06,06,0.00
2014,02,16,06,07,0.00
2014,02,16,06,08,0.70
2014,02,16,06,09,0.10
2014,02,16,06,10,0.70
2014,02,16,06,11,1.30
2014,02,16,06,12,2.30
2014,02,16,06,13,3.50
2014,02,16,06,14,0.70
2014,02,16,06,15,1.40
2014,02,16,06,16,2.00
2014,02,16,06,17,2.50
2014,02,16,06,18,3.40
2014,02,16,06,19,2.30
2014,02,16,06,20,3.90
2014,02,16,06,21,3.10
2014,02,16,06,22,2.40
2014,02,16,06,23,2.60
2014,02,16,06,24,1.70
2014,02,16,06,25,3.70
2014,02,16,06,26,7.80
2014,02,16,06,27,6.90
2014,02,16,06,28,4.80
2014,02,16,06,29,6.90
2014,02,16,06,30,5.10
2014,02,16,06,31,5.90
2014,02,16,06,32,4.80
2014,02,16,06,33,4.60
2014,02,16,06,34,5.70
2014,02,16,06,35,5.60
2014,02,16,06,36,6.50
2014,02,16,06,37,5.30
2014,02,16,06,38,7.50
2014,02,16,06,39,8.00
2014,02,16,06,40,6.80
2014,02,16,06,41,5.20
2014,02,16,06,42,8.80
2014,02,16,06,43,8.10
2014,02,16,06,44,8.30
2014,02,16,06,45,9.30
2014,02,16,06,46,8.10
2014,02,16,06,47,11.90
2014,02,16,06,48,10.60
2014,02,16,06,49,9.50
2014,02,16,06,50,4.40
2014,02,16,06,51,8.20
2014,02,16,06,52,8.60
2014,02,16,06,53,5.80
2014,02,16,06,54,5.00
2014,02,16,06,55,4.00
2014,02,16,06,56,4.80
2014,02,16,06,57,8.00
2014,02,16,06,58,6.10
2014,02,16,06,59,9.50
2014,02,16,07,00,10.70
2014,02,16,07,01,11.20
2014,02,16,07,02,8.50
2014,02,16,07,03,8.30
2014,02,16,07,04,9.80
2014,02,16,07,05,11.30
2014,02,16,07,06,12.90
2014,02,16,07,07,12.90
2014,02,16,07,08,12.90
2014,02,16,07,09,11.30
2014,02,16,07,10,9.40
2014,02,16,07,11,7.10
2014,02,16,07,12,7.80
2014,02,16,07,13,10.00
2014,02,16,07,14,8.70
2014,02,16,07,15,10.50
2014,02,16,07,16,10.10
2014,02,16,07,17,9.20
2014,02,16,07,18,12.10
2014,02,16,07,19,9.10
2014,02,16,07,20,8.40
2014,02,16,07,21,9.90
2014,02,16,07,22,10.00
2014,02,16,07,23,9.00
2014,02,16,07,24,9.90
2014,02,16,07,25,10.60
2014,02,16,07,26,11.80
2014,02,16,07,27,11.40
2014,02,16,07,28,10.10
2014,02,16,07,29,11.60
2014,02,16,07,30,9.40
2014,02,16,07,31,9.20
2014,02,16,07,32,7.20
2014,02,16,07,33,8.60
2014,02,16,07,34,10.50
2014,02,16,07,35,9.50
2014,02,16,07,36,8.80
2014,02,16,07,37,8.40
2014,02,16,07,38,6.90
2014,02,16,07,39,8.00
2014,02,16,07,40,7.10
2014,02,16,07,41,6.30
2014,02,16,07,42,6.70
2014,02,16,07,43,5.40
2014,02,16,07,44,4.00
2014,02,16,07,45,10.30
2014,02,16,07,46,8.70
2014,02,16,07,47,7.10
2014,02,16,07,48,9.30
2014,02,16,07,49,6.60
2014,02,16,07,50,6.10
2014,02,16,07,51,5.50
2014,02,16,07,52,6.00
2014,02,16,07,53,8.30
2014,02,16,07,54,8.10
2014,02,16,07,55,12.00
2014,02,16,07,56,8.60
2014,02,16,07,57,8.10
2014,02,16,07,58,10.20
2014,02,16,07,59,8.90
2014,02,16,08,00,9.40
2014,02,16,08,01,8.60
2014,02,16,08,02,6.30
2014,02,16,08,03,7.40
2014,02,16,08,04,11.10
2014,02,16,08,05,10.20
2014,02,16,08,06,6.30
2014,02,16,08,07,12.20
2014,02,16,08,08,8.60
2014,02,16,08,09,8.70
2014,02,16,08,10,9.70
2014,02,16,08,11,11.00
2014,02,16,08,12,11.00
2014,02,16,08,13,10.00
2014,02,16,08,14,12.60
2014,02,16,08,15,10.20
2014,02,16,08,16,8.70
2014,02,16,08,17,11.40
2014,02,16,08,18,4.10
2014,02,16,08,19,7.10
2014,02,16,08,20,8.20
2014,02,16,08,21,9.80
2014,02,16,08,22,8.30
2014,02,16,08,23,4.50
2014,02,16,08,24,7.70
2014,02,16,08,25,3.90
2014,02,16,08,26,8.60
2014,02,16,08,27,12.20
2014,02,16,08,28,9.20
2014,02,16,08,29,8.20
2014,02,16,08,30,8.00
2014,02,16,08,31,10.70
2014,02,16,08,32,10.80
2014,02,16,08,33,9.60
2014,02,16,08,34,8.50
2014,02,16,08,35,10.70
2014,02,16,08,36,7.30
2014,02,16,08,37,7.70
2014,02,16,08,38,8.20
2014,02,16,08,39,5.50
2014,02,16,08,40,9.40
2014,02,16,08,41,9.70
2014,02,16,08,42,8.70
2014,02,16,08,43,7.60
2014,02,16,08,44,10.00
2014,02,16,08,45,10.70
2014,02,16,08,46,14.70
2014,02,16,08,47,8.40
2014,02,16,08,48,8.70
2014,02,16,08,49,10.60
2014,02,16,08,50,5.60
2014,02,16,08,51,6.70
2014,02,16,08,52,11.00
2014,02,16,08,53,8.50
2014,02,16,08,54,9.40
2014,02,16,08,55,9.70
2014,02,16,08,56,4.40
2014,02,16,08,57,8.30
2014,02,16,08,58,11.80
2014,02,16,08,59,13.90
2014,02,16,09,00,13.10
2014,02,16,09,01,7.90
2014,02,16,09,02,13.30
2014,02,16,09,03,9.60
2014,02,16,09,04,7.10
2014,02,16,09,05,8.00
2014,02,16,09,06,9.90
2014,02,16,09,07,6.30
2014,02,16,09,08,10.30
2014,02,16,09,09,8.90
2014,02,16,09,10,10.40
2014,02,16,09,11,10.00
2014,02,16,09,12,8.10
2014,02,16,09,13,9.20
2014,02,16,09,14,13.50
2014,02,16,09,15,11.50
2014,02,16,09,16,6.90
2014,02,16,09,17,8.10
2014,02,16,09,18,10.50
2014,02,16,09,19,9.50
2014,02,16,09,20,12.10
2014,02,16,09,21,8.20
2014,02,16,09,22,10.30
2014,02,16,09,23,11.30
2014,02,16,09,24,15.50
2014,02,16,09,25,11.00
2014,02,16,09,26,12.20
2014,02,16,09,27,9.40
2014,02,16,09,28,11.80
2014,02,16,09,29,11.80
2014,02,16,09,30,7.60
2014,02,16,09,31,3.40
2014,02,16,09,32,8.90
2014,02,16,09,33,7.70
2014,02,16,09,34,4.20
2014,02,16,09,35,12.10
2014,02,16,09,36,7.10
2014,02,16,09,37,8.60
2014,02,16,09,38,7.80
2014,02,16,09,39,8.30
2014,02,16,09,40,8.00
2014,02,16,09,41,8.20
2014,02,16,09,42,10.60
2014,02,16,09,43,10.00
2014,02,16,09,44,8.00
2014,02,16,09,45,10.30
2014,02,16,09,46,13.00
2014,02,16,09,47,10.40
2014,02,16,09,48,9.70
2014,02,16,09,49,8.10
2014,02,16,09,50,11.50
2014,02,16,09,51,7.70
2014,02,16,09,52,12.10
2014,02,16,09,53,9.70
2014,02,16,09,54,13.00
2014,02,16,09,55,10.80
2014,02,16,09,56,9.40
2014,02,16,09,57,14.20
2014,02,16,09,58,7.80
2014,02,16,09,59,8.40
2014,02,16,10,00,8.60
2014,02,16,10,01,11.00
2014,02,16,10,02,8.30
2014,02,16,10,03,8.70
2014,02,16,10,04,6.10
2014,02,16,10,05,6.90
2014,02,16,10,06,10.40
2014,02,16,10,07,6.20
2014,02,16,10,08,9.30
2014,02,16,10,09,7.30
2014,02,16,10,10,7.40
2014,02,16,10,11,8.40
2014,02,16,10,12,8.00
2014,02,16,10,13,10.20
2014,02,16,10,14,8.10
2014,02,16,10,15,17.50
2014,02,16,10,16,3.40
2014,02,16,10,17,1.00
2014,02,16,10,18,7.70
2014,02,16,10,19,7.30
2014,02,16,10,20,7.40
2014,02,16,10,21,13.30
2014,02,16,10,22,10.30
2014,02,16,10,23,14.00
2014,02,16,10,24,10.30
2014,02,16,10,25,9.60
2014,02,16,10,26,11.50
2014,02,16,10,27,9.80
2014,02,16,10,28,6.00
2014,02,16,10,29,11.90
2014,02,16,10,30,12.30
2014,02,16,10,31,14.50
2014,02,16,10,32,12.10
2014,02,16,10,33,8.90
2014,02,16,10,34,10.40
2014,02,16,10,35,11.00
2014,02,16,10,36,14.20
2014,02,16,10,37,11.30
2014,02,16,10,38,9.30
2014,02,16,10,39,9.30
2014,02,16,10,40,9.80
2014,02,16,10,41,10.30
2014,02,16,10,42,8.80
2014,02,16,10,43,13.20
2014,02,16,10,44,9.60
2014,02,16,10,45,11.80
2014,02,16,10,46,13.00
2014,02,16,10,47,10.00
2014,02,16,10,48,9.30
2014,02,16,10,49,16.80
2014,02,16,10,50,6.80
2014,02,16,10,51,8.20
2014,02,16,10,52,17.30
2014,02,16,10,53,16.80
2014,02,16,10,54,13.40
2014,02,16,10,55,10.20
2014,02,16,10,56,12.20
2014,02,16,10,57,16.90
2014,02,16,10,58,12.00
2014,02,16,10,59,11.20
2014,02,16,11,00,12.10
2014,02,16,11,01,11.30
2014,02,16,11,02,4.80
2014,02,16,11,03,5.30
2014,02,16,11,04,5.30
2014,02,16,11,05,7.70
2014,02,16,11,06,11.90
2014,02,16,11,07,19.40
2014,02,16,11,08,13.80
2014,02,16,11,09,10.80
2014,02,16,11,10,16.50
2014,02,16,11,11,13.30
2014,02,16,11,12,11.20
2014,02,16,11,13,11.80
2014,02,16,11,14,14.50
2014,02,16,11,15,17.20
2014,02,16,11,16,12.10
2014,02,16,11,17,10.50
2014,02,16,11,18,10.40
2014,02,16,11,19,11.00
2014,02,16,11,20,7.20
2014,02,16,11,21,8.50
2014,02,16,11,22,11.30
2014,02,16,11,23,9.40
2014,02,16,11,24,3.00
2014,02,16,11,25,8.60
2014,02,16,11,26,14.30
2014,02,16,11,27,6.90
2014,02,16,11,28,8.20
2014,02,16,11,29,9.40
2014,02,16,11,30,6.70
2014,02,16,11,31,9.40
2014,02,16,11,32,11.30
2014,02,16,11,33,14.00
2014,02,16,11,34,18.70
2014,02,16,11,35,20.80
2014,02,16,11,36,13.30
2014,02,16,11,37,21.10
2014,02,16,11,38,14.40
2014,02,16,11,39,11.40
2014,02,16,11,40,8.30
2014,02,16,11,41,12.60
2014,02,16,11,42,9.40
2014,02,16,11,43,9.10
2014,02,16,11,44,10.20
2014,02,16,11,45,10.30
2014,02,16,11,46,9.40
2014,02,16,11,47,13.00
2014,02,16,11,48,10.70
2014,02,16,11,49,13.80
2014,02,16,11,50,15.80
2014,02,16,11,51,14.40
2014,02,16,11,52,12.70
2014,02,16,11,53,4.80
2014,02,16,11,54,12.90
2014,02,16,11,55,6.70
2014,02,16,11,56,15.10
2014,02,16,11,57,10.20
2014,02,16,11,58,11.40
2014,02,16,11,59,17.00
2014,02,16,12,00,21.00
2014,02,16,12,01,12.60
2014,02,16,12,02,19.60
2014,02,16,12,03,11.60
2014,02,16,12,04,11.00
2014,02,16,12,05,10.30
2014,02,16,12,06,16.40
2014,02,16,12,07,15.20
2014,02,16,12,08,14.90
2014,02,16,12,09,12.10
2014,02,16,12,10,16.80
2014,02,16,12,11,17.30
2014,02,16,12,12,12.30
2014,02,16,12,13,11.00
2014,02,16,12,14,9.40
2014,02,16,12,15,10.60
2014,02,16,12,16,20.00
2014,02,16,12,17,15.30
2014,02,16,12,18,23.10
2014,02,16,12,19,13.60
2014,02,16,12,20,11.80
2014,02,16,12,21,31.70
2014,02,16,12,22,23.90
2014,02,16,12,23,15.20
2014,02,16,12,24,11.60
2014,02,16,12,25,13.00
2014,02,16,12,26,15.40
2014,02,16,12,27,14.20
2014,02,16,12,28,16.70
2014,02,16,12,29,11.70
2014,02,16,12,30,13.70
2014,02,16,12,31,15.50
2014,02,16,12,32,20.90
2014,02,16,12,33,15.30
2014,02,16,12,34,21.10
2014,02,16,12,35,12.60
2014,02,16,12,36,13.10
2014,02,16,12,37,15.80
2014,02,16,12,38,19.60
2014,02,16,12,39,23.90
2014,02,16,12,40,21.70
2014,02,16,12,41,27.30
2014,02,16,12,42,19.40
2014,02,16,12,43,19.30
2014,02,16,12,44,19.30
2014,02,16,12,45,19.30
2014,02,16,12,46,19.30
2014,02,16,12,47,18.20
2014,02,16,12,48,30.50
2014,02,16,12,49,22.20
2014,02,16,12,50,20.20
2014,02,16,12,51,18.80
2014,02,16,12,52,16.00
2014,02,16,12,53,17.30
2014,02,16,12,54,12.00
2014,02,16,12,55,23.00
2014,02,16,12,56,23.60
2014,02,16,12,57,25.30
2014,02,16,12,58,20.80
2014,02,16,12,59,27.80
2014,02,16,13,00,27.20
2014,02,16,13,01,24.40
2014,02,16,13,02,27.50
2014,02,16,13,03,26.10
2014,02,16,13,04,21.70
2014,02,16,13,05,21.50
2014,02,16,13,06,25.20
2014,02,16,13,07,23.80
2014,02,16,13,08,28.20
2014,02,16,13,09,20.90
2014,02,16,13,10,33.30
2014,02,16,13,11,26.60
2014,02,16,13,12,20.10
2014,02,16,13,13,19.00
2014,02,16,13,14,24.50
2014,02,16,13,15,32.30
2014,02,16,13,16,30.40
2014,02,16,13,17,29.30
2014,02,16,13,18,19.40
2014,02,16,13,19,21.50
2014,02,16,13,20,25.60
2014,02,16,13,21,15.80
2014,02,16,13,22,22.80
2014,02,16,13,23,20.00
2014,02,16,13,24,22.50
2014,02,16,13,25,27.80
2014,02,16,13,26,27.60
2014,02,16,13,27,23.00
2014,02,16,13,28,22.30
2014,02,16,13,29,29.80
2014,02,16,13,30,27.70
2014,02,16,13,31,26.20
2014,02,16,13,32,20.40
2014,02,16,13,33,33.10
2014,02,16,13,34,17.50
2014,02,16,13,35,24.00
2014,02,16,13,36,23.40
2014,02,16,13,37,28.50
2014,02,16,13,38,38.50
2014,02,16,13,39,32.70
2014,02,16,13,40,31.20
2014,02,16,13,41,25.20
2014,02,16,13,42,19.20
2014,02,16,13,43,23.40
2014,02,16,13,44,26.30
2014,02,16,13,45,28.40
2014,02,16,13,46,19.40
2014,02,16,13,47,26.60
2014,02,16,13,48,25.60
2014,02,16,13,49,21.60
2014,02,16,13,50,20.30
2014,02,16,13,51,24.70
2014,02,16,13,52,31.10
2014,02,16,13,53,27.30
2014,02,16,13,54,24.30
2014,02,16,13,55,25.70
2014,02,16,13,56,23.80
2014,02,16,13,57,27.90
2014,02,16,13,58,32.90
2014,02,16,13,59,24.10
2014,02,16,14,00,19.50
2014,02,16,14,01,16.80
2014,02,16,14,02,23.10
2014,02,16,14,03,26.00
2014,02,16,14,04,21.10
2014,02,16,14,05,19.00
2014,02,16,14,06,24.80
2014,02,16,14,07,26.00
2014,02,16,14,08,29.80
2014,02,16,14,09,17.60
2014,02,16,14,10,24.50
2014,02,16,14,11,24.40
2014,02,16,14,12,22.70
2014,02,16,14,13,33.30
2014,02,16,14,14,30.70
2014,02,16,14,15,43.20
2014,02,16,14,16,32.80
2014,02,16,14,17,35.40
2014,02,16,14,18,28.30
2014,02,16,14,19,29.70
2014,02,16,14,20,26.90
2014,02,16,14,21,24.80
2014,02,16,14,22,19.80
2014,02,16,14,23,21.40
2014,02,16,14,24,16.90
2014,02,16,14,25,25.60
2014,02,16,14,26,22.40
2014,02,16,14,27,17.00
2014,02,16,14,28,23.20
2014,02,16,14,29,19.80
2014,02,16,14,30,13.20
2014,02,16,14,31,26.30
2014,02,16,14,32,30.20
2014,02,16,14,33,21.10
2014,02,16,14,34,16.70
2014,02,16,14,35,23.30
2014,02,16,14,36,13.00
2014,02,16,14,37,15.90
2014,02,16,14,38,11.70
2014,02,16,14,39,3.50
2014,02,16,14,40,5.60
2014,02,16,14,41,10.10
2014,02,16,14,42,6.10
2014,02,16,14,43,6.10
2014,02,16,14,44,6.60
2014,02,16,14,45,4.10
2014,02,16,14,46,2.20
2014,02,16,14,47,6.60
2014,02,16,14,48,9.40
2014,02,16,14,49,7.90
2014,02,16,14,50,9.40
2014,02,16,14,51,7.50
2014,02,16,14,52,4.00
2014,02,16,14,53,4.80
2014,02,16,14,54,2.00
2014,02,16,14,55,1.60
2014,02,16,14,56,3.30
2014,02,16,14,57,1.20
2014,02,16,14,58,3.30
2014,02,16,14,59,3.10
2014,02,16,15,00,1.20
2014,02,16,15,01,6.40
2014,02,16,15,02,4.90
2014,02,16,15,03,4.10
2014,02,16,15,04,4.50
2014,02,16,15,05,5.10
2014,02,16,15,06,10.60
2014,02,16,15,07,18.40
2014,02,16,15,08,8.70
2014,02,16,15,09,8.30
2014,02,16,15,10,12.30
2014,02,16,15,11,8.20
2014,02,16,15,12,12.00
2014,02,16,15,13,20.00
2014,02,16,15,14,20.00
2014,02,16,15,15,22.10
2014,02,16,15,16,11.80
2014,02,16,15,17,17.10
2014,02,16,15,18,21.50
2014,02,16,15,19,23.20
2014,02,16,15,20,23.50
2014,02,16,15,21,19.10
2014,02,16,15,22,23.40
2014,02,16,15,23,15.00
2014,02,16,15,24,14.90
2014,02,16,15,25,14.30
2014,02,16,15,26,9.30
2014,02,16,15,27,9.60
2014,02,16,15,28,12.30
2014,02,16,15,29,14.60
2014,02,16,15,30,15.20
2014,02,16,15,31,14.00
2014,02,16,15,32,12.60
2014,02,16,15,33,19.50
2014,02,16,15,34,13.10
2014,02,16,15,35,21.40
2014,02,16,15,36,13.30
2014,02,16,15,37,16.70
2014,02,16,15,38,16.50
2014,02,16,15,39,14.90
2014,02,16,15,40,16.40
2014,02,16,15,41,16.10
2014,02,16,15,42,21.30
2014,02,16,15,43,18.40
2014,02,16,15,44,15.40
2014,02,16,15,45,16.60
2014,02,16,15,46,12.60
2014,02,16,15,47,12.30
2014,02,16,15,48,12.60
2014,02,16,15,49,12.00
2014,02,16,15,50,11.30
2014,02,16,15,51,15.90
2014,02,16,15,52,12.90
2014,02,16,15,53,11.00
2014,02,16,15,54,11.60
2014,02,16,15,55,13.10
2014,02,16,15,56,15.10
2014,02,16,15,57,10.40
2014,02,16,15,58,12.00
2014,02,16,15,59,17.50
2014,02,16,16,00,12.00
2014,02,16,16,01,9.80
2014,02,16,16,02,8.90
2014,02,16,16,03,14.60
2014,02,16,16,04,10.70
2014,02,16,16,05,8.20
2014,02,16,16,06,7.10
2014,02,16,16,07,9.50
2014,02,16,16,08,8.70
2014,02,16,16,09,8.70
2014,02,16,16,10,5.00
2014,02,16,16,11,7.20
2014,02,16,16,12,8.10
2014,02,16,16,13,10.40
2014,02,16,16,14,9.30
2014,02,16,16,15,12.80
2014,02,16,16,16,5.20
2014,02,16,16,17,11.70
2014,02,16,16,18,6.40
2014,02,16,16,19,9.00
2014,02,16,16,20,10.40
2014,02,16,16,21,11.80
2014,02,16,16,22,12.90
2014,02,16,16,23,12.50
2014,02,16,16,24,10.60
2014,02,16,16,25,10.00
2014,02,16,16,26,10.70
2014,02,16,16,27,8.40
2014,02,16,16,28,13.90
2014,02,16,16,29,7.90
2014,02,16,16,30,11.70
2014,02,16,16,31,13.10
2014,02,16,16,32,11.70
2014,02,16,16,33,15.50
2014,02,16,16,34,11.90
2014,02,16,16,35,17.50
2014,02,16,16,36,14.00
2014,02,16,16,37,15.00
2014,02,16,16,38,13.60
2014,02,16,16,39,18.50
2014,02,16,16,40,15.00
2014,02,16,16,41,11.50
2014,02,16,16,42,12.20
2014,02,16,16,43,8.80
2014,02,16,16,44,11.30
2014,02,16,16,45,14.70
2014,02,16,16,46,12.70
2014,02,16,16,47,12.60
2014,02,16,16,48,15.70
2014,02,16,16,49,11.10
2014,02,16,16,50,9.10
2014,02,16,16,51,11.90
2014,02,16,16,52,14.30
2014,02,16,16,53,9.20
2014,02,16,16,54,7.40
2014,02,16,16,55,4.90
2014,02,16,16,56,5.70
2014,02,16,16,57,5.20
2014,02,16,16,58,6.10
2014,02,16,16,59,5.60
2014,02,16,17,00,4.10
2014,02,16,17,01,3.10
2014,02,16,17,02,1.20
2014,02,16,17,03,3.50
2014,02,16,17,04,3.70
2014,02,16,17,05,1.50
2014,02,16,17,06,2.30
2014,02,16,17,07,3.50
2014,02,16,17,08,2.20
2014,02,16,17,09,2.10
2014,02,16,17,10,0.20
2014,02,16,17,11,2.10
2014,02,16,17,12,2.10
2014,02,16,17,13,1.50
2014,02,16,17,14,1.80
2014,02,16,17,15,3.90
2014,02,16,17,16,5.40
2014,02,16,17,17,3.60
2014,02,16,17,18,1.20
2014,02,16,17,19,2.40
2014,02,16,17,20,3.50
2014,02,16,17,21,2.40
2014,02,16,17,22,2.60
2014,02,16,17,23,3.40
2014,02,16,17,24,4.30
2014,02,16,17,25,4.20
2014,02,16,17,26,5.40
2014,02,16,17,27,4.40
2014,02,16,17,28,1.20
2014,02,16,17,29,1.50
2014,02,16,17,30,3.70
2014,02,16,17,31,2.80
2014,02,16,17,32,3.10
2014,02,16,17,33,3.30
2014,02,16,17,34,4.40
2014,02,16,17,35,4.80
2014,02,16,17,36,2.00
2014,02,16,17,37,2.40
2014,02,16,17,38,3.70
2014,02,16,17,39,2.20
2014,02,16,17,40,1.80
2014,02,16,17,41,3.00
2014,02,16,17,42,5.10
2014,02,16,17,43,5.10